This demonstration page uses our WeatherBlox Daily Observations layout. Learn more.

Hourly Observations for January 13, 2018

Temp ( °F °C ) Dew Point ( °F °C ) Humidity (%) Winds ( mph kmh ) Pressure ( in mb ) Visibility ( mi km ) Precip ( " mm )
12:15 am 00:15 Cloudy 8 -13.5 3 -16 82 82 N 6 9 30.8 1043 10 16.0934 0 0
12:35 am 00:35 Cloudy 8 -13.5 3 -16 82 82 N 6 9 30.8 1043 10 16.0934 0 0
12:55 am 00:55 Cloudy 8 -13.6 3 -16.1 82 82 N 7 11 30.8 1043 10 16.0934 0 0
1:15 am 01:15 Cloudy 7 -13.7 3 -16.2 82 82 N 6 9 30.77 1042 10 16.0934 0 0
1:35 am 01:35 Cloudy 7 -13.8 3 -16.3 82 82 N 6 9 30.77 1042 10 16.0934 0 0
1:55 am 01:55 Cloudy 7 -13.9 3 -16.2 83 83 N 6 9 30.77 1042 10 16.0934 0 0
2:15 am 02:15 Cloudy 7 -14 3 -16.3 83 83 N 6 9 30.77 1042 10 16.0934 0 0
2:35 am 02:35 Cloudy with Light Snow 7 -14 2 -16.5 82 82 N 5 7 30.8 1043 10 16.0934 0 0
2:55 am 02:55 Cloudy with Light Snow 7 -14.1 2 -16.5 82 82 Calm 30.8 1043 10 16.0934 0 0
3:15 am 03:15 Cloudy with Light Snow 7 -14.1 2 -16.5 82 82 N 3 6 30.8 1043 10 16.0934 0 0
3:35 am 03:35 Cloudy 7 -14.1 2 -16.5 82 82 N 3 6 30.8 1043 10 16.0934 0 0
3:55 am 03:55 Cloudy 7 -14.1 2 -16.5 82 82 N 3 6 30.8 1043 10 16.0934 0 0
4:15 am 04:15 Cloudy 6 -14.2 2 -16.5 83 83 N 3 6 30.77 1042 10 16.0934 0 0
4:35 am 04:35 Cloudy 6 -14.2 2 -16.5 83 83 Calm 30.77 1042 10 16.0934 0 0
4:55 am 04:55 Cloudy 6 -14.2 2 -16.5 83 83 N 3 6 30.77 1042 10 16.0934 0 0
5:15 am 05:15 Cloudy 6 -14.2 2 -16.5 83 83 Calm 30.77 1042 10 16.0934 0 0
5:35 am 05:35 Cloudy 7 -14.1 2 -16.5 82 82 N 3 6 30.77 1042 10 16.0934 0 0
5:55 am 05:55 Cloudy 7 -14.1 2 -16.5 82 82 NNE 5 7 30.77 1042 10 16.0934 0 0
6:15 am 06:15 Cloudy 7 -14.1 2 -16.5 82 82 NNE 5 7 30.8 1043 10 16.0934 0 0
6:35 am 06:35 Cloudy 7 -14.1 2 -16.5 82 82 NNE 5 7 30.77 1042 10 16.0934 0 0
6:55 am 06:55 Cloudy 6 -14.2 2 -16.7 82 82 NE 6 9 30.77 1042 10 16.0934 0 0
7:15 am 07:15 Cloudy 6 -14.2 2 -16.7 82 82 NE 5 7 30.77 1042 10 16.0934 0 0
7:35 am 07:35 Cloudy 6 -14.2 2 -16.7 82 82 ENE 3 6 30.8 1043 10 16.0934 0 0
7:55 am 07:55 Cloudy 6 -14.2 2 -16.5 83 83 E 6 9 30.8 1043 10 16.0934 0 0
8:15 am 08:15 Cloudy 6 -14.2 2 -16.6 82 82 E 3 6 30.8 1043 10 16.0934 0 0
8:35 am 08:35 Cloudy 6 -14.2 2 -16.6 82 82 ESE 3 6 30.8 1043 10 16.0934 0 0
8:55 am 08:55 Cloudy 7 -14.1 2 -16.6 82 82 ESE 5 7 30.77 1042 10 16.0934 0 0
9:15 am 09:15 Cloudy with Light Snow 7 -14 2 -16.5 82 82 ESE 3 6 30.8 1043 10 16.0934 0 0
9:35 am 09:35 Cloudy with Light Snow 7 -13.7 3 -16.2 82 82 SSE 3 6 30.8 1043 10 16.0934 0 0
9:55 am 09:55 Cloudy with Light Snow 8 -13.6 3 -16.1 82 82 SSE 3 6 30.8 1043 10 16.0934 0 0
10:15 am 10:15 Cloudy 8 -13.5 3 -16 82 82 SSE 8 13 30.8 1043 10 16.0934 0 0
10:35 am 10:35 Cloudy with Light Snow 8 -13.2 4 -15.8 81 81 SSE 6 9 30.8 1043 5 8.0467 0 0
10:55 am 10:55 Cloudy with Light Snow 8 -13.1 4 -15.6 82 82 SSE 6 9 30.77 1042 3 4.82802 0 0
11:15 am 11:15 Cloudy with Light Snow 9 -12.7 5 -15.2 82 82 SSE 7 11 30.74 1041 4 6.43736 0 0
11:35 am 11:35 Cloudy with Light Snow 9 -12.6 5 -15.1 82 82 S 8 13 30.74 1041 5 8.0467 0 0
11:55 am 11:55 Cloudy with Light Snow 10 -12.3 5 -15 80 80 S 7 11 30.71 1040 10 16.0934 0 0
12:15 pm 12:15 Cloudy 11 -11.9 6 -14.7 80 80 S 10 17 30.71 1040 10 16.0934 0 0
12:35 pm 12:35 Cloudy 11 -11.8 5 -14.9 78 78 S 7 11 30.71 1040 10 16.0934 0 0
12:55 pm 12:55 Cloudy 12 -11.3 6 -14.5 77 77 S 6 9 30.71 1040 10 16.0934 0 0
1:15 pm 13:15 Cloudy 12 -11 6 -14.2 78 78 S 9 15 30.71 1040 10 16.0934 0 0
1:35 pm 13:35 Cloudy 13 -10.7 7 -14 77 77 S 7 11 30.65 1038 10 16.0934 0 0
1:55 pm 13:55 Cloudy 13 -10.6 7 -13.8 78 78 S 6 9 30.62 1037 10 16.0934 0 0
2:15 pm 14:15 Cloudy 13 -10.6 7 -13.7 78 78 S 7 11 30.62 1037 10 16.0934 0 0
2:35 pm 14:35 Mostly Cloudy 13 -10.5 8 -13.6 78 78 S 7 11 30.59 1036 10 16.0934 0 0
2:55 pm 14:55 Mostly Cloudy 14 -10.1 8 -13.4 77 77 SSE 8 13 30.59 1036 10 16.0934 0 0
3:15 pm 15:15 Mostly Cloudy 14 -10.1 8 -13.2 78 78 S 9 15 30.59 1036 10 16.0934 0 0
3:35 pm 15:35 Mostly Cloudy 14 -10.1 8 -13.2 78 78 S 8 13 30.59 1036 10 16.0934 0 0
3:55 pm 15:55 Cloudy 14 -10 8 -13.1 78 78 SSE 8 13 30.59 1036 10 16.0934 0 0
4:15 pm 16:15 Cloudy 14 -10 8 -13.1 78 78 S 8 13 30.59 1036 10 16.0934 0 0
4:35 pm 16:35 Mostly Cloudy 14 -9.9 8 -13.1 78 78 SSE 9 15 30.59 1036 10 16.0934 0 0
4:55 pm 16:55 Mostly Cloudy 14 -9.9 9 -12.9 79 79 SSE 8 13 30.59 1036 10 16.0934 0 0
5:15 pm 17:15 Cloudy 14 -9.8 9 -13 78 78 SSE 8 13 30.59 1036 10 16.0934 0 0
5:35 pm 17:35 Cloudy 14 -9.8 9 -12.7 80 80 SSE 7 11 30.59 1036 10 16.0934 0 0
5:55 pm 17:55 Cloudy 15 -9.7 9 -12.6 80 80 SSE 7 11 30.59 1036 10 16.0934 0 0
6:15 pm 18:15 Cloudy 15 -9.7 10 -12.5 80 80 SSE 8 13 30.59 1036 10 16.0934 0 0
6:35 pm 18:35 Cloudy with Light Snow 14 -9.8 10 -12.1 83 83 SSE 9 15 30.59 1036 4 6.43736 0 0
6:55 pm 18:55 Cloudy with Light Snow 14 -10 11 -11.8 87 87 SSE 8 13 30.59 1036 3 4.82802 0 0
7:15 pm 19:15 Cloudy with Light Snow 14 -10 11 -11.7 88 88 S 10 17 30.59 1036 3 4.82802 0 0
7:35 pm 19:35 Cloudy with Light Snow 14 -10 11 -11.5 89 89 SSE 12 19 30.56 1035 2.5 4.02335 0 0
7:55 pm 19:55 Cloudy with Light Snow 14 -10 12 -11.3 90 90 SSE 12 19 30.56 1035 4 6.43736 0 0
8:15 pm 20:15 Cloudy with Light Snow 14 -9.8 12 -11.2 90 90 S 12 19 30.56 1035 2.5 4.02335 0 0
8:35 pm 20:35 Cloudy with Light Snow 14 -9.8 12 -11.1 90 90 S 12 19 30.53 1034 4 6.43736 0 0
8:55 pm 20:55 Cloudy with Light Snow 15 -9.6 12 -11 90 90 S 10 17 30.53 1034 3 4.82802 0 0
9:15 pm 21:15 Cloudy with Light Snow 15 -9.5 13 -10.8 90 90 S 9 15 30.56 1035 7 11.26538 0 0
9:35 pm 21:35 Cloudy with Light Snow 15 -9.3 13 -10.6 90 90 S 12 19 30.5 1033 10 16.0934 0 0
9:55 pm 21:55 Cloudy with Light Snow 15 -9.3 13 -10.6 90 90 S 9 15 30.5 1033 5 8.0467 0 0
10:15 pm 22:15 Cloudy with Light Snow 15 -9.2 13 -10.5 90 90 S 10 17 30.5 1033 2.5 4.02335 0 0
10:35 pm 22:35 Cloudy with Light Snow 16 -9 14 -10.2 91 91 S 9 15 30.5 1033 5 8.0467 0 0
10:55 pm 22:55 Cloudy with Light Snow 16 -9 13 -10.3 90 90 S 10 17 30.5 1033 4 6.43736 0 0
11:15 pm 23:15 Cloudy with Light Snow 16 -9 14 -10.1 92 92 S 9 15 30.5 1033 2 3.21868 0 0
11:35 pm 23:35 Cloudy with Light Snow 16 -8.8 14 -10 91 91 S 8 13 30.5 1033 2 3.21868 0.01 0.254
11:55 pm 23:55 Cloudy with Light Snow 16 -8.7 14 -9.8 92 92 SW 3 6 30.53 1034 2.5 4.02335 0.01 0.254

Powered by AerisWeather